Weather History for KIPT - August, 2014

Change the Weather History Date:

Monday, August 25, 2014

  Actual Average Record
Temperature  
Mean Temperature 70 °F 70 °F  
Max Temperature 82 °F 80 °F 95 °F (1948)
Min Temperature 57 °F 60 °F 38 °F (1940)
Degree Days  
Heating Degree Days 0 1  
Month to date heating degree days 4 1  
Since 1 June heating degree days 12 42  
Since 1 July heating degree days 4 5  
Cooling Degree Days 5 6  
Month to date cooling degree days 131 172  
Year to date cooling degree days 590 605  
Since 1 June cooling degree days 538 562  
Growing Degree Days 20 (Base 50)    
Moisture  
Dew Point 58 °F    
Average Humidity 65    
Maximum Humidity 93    
Minimum Humidity 37    
Precipitation  
Precipitation 0.00 in 0.12 in 1.30 in (1911)
Month to date precipitation 6.29 3.13  
Year to date precipitation 28.52 26.30  
Sea Level Pressure  
Sea Level Pressure 30.17 in    
Wind  
Wind Speed 2 mph (NNW)    
Max Wind Speed 10 mph    
Max Gust Speed 13 mph    
Visibility 8 miles    
Events Fog    
T = Trace of Precipitation, MM = Missing Value Source: NWS Daily Summary

Daily Weather History Graph

Daily Weather History Graph

Search for Another Location

Airport or City:

Trip Planner

Search our weather history database for the weather conditions in past years. The results will help you decide how hot, cold, wet, or windy it might be!

Date:

Astronomy

Aug. 25, 2014 Rise Set
Actual Time 6:27 AM EDT 7:51 PM EDT
Civil Twilight 5:58 AM EDT 8:20 PM EDT
Nautical Twilight 5:23 AM EDT 8:54 PM EDT
Astronomical Twilight 4:46 AM EDT 9:31 PM EDT
Moon 6:30 AM EDT (8/25) 7:40 PM EDT (8/25)
Length of Visible Light 14h 22m
Length of Day
13h 24m
New Moon, 0% of the Moon is Illuminated
Aug 25
New Moon
Sep 2
First Quarter
Sep 8
Full
Sep 15
Last Quarter
Sep 24
New

Hourly Weather History & Observations

Time (EDT) Temp. Heat Index Dew Point Humidity Pressure Visibility Wind Dir Wind Speed Gust Speed Precip Events Conditions
12:54 AM 62.1 °F - 57.9 °F 86% 30.17 in 10.0 mi Calm Calm - N/A   Clear
1:54 AM 61.0 °F - 57.0 °F 87% 30.16 in 10.0 mi Calm Calm - N/A   Clear
2:54 AM 59.0 °F - 55.9 °F 90% 30.16 in 10.0 mi NW 3.5 mph - N/A   Clear
3:10 AM 59.0 °F - 55.9 °F 90% 30.17 in 10.0 mi North 3.5 mph - N/A   Partly Cloudy
3:28 AM 60.1 °F - 57.0 °F 90% 30.17 in 10.0 mi Calm Calm - N/A   Mostly Cloudy
3:54 AM 59.0 °F - 55.9 °F 90% 30.17 in 10.0 mi Calm Calm - N/A   Overcast
4:54 AM 59.0 °F - 55.4 °F 88% 30.17 in 10.0 mi Calm Calm - N/A   Overcast
5:27 AM 59.0 °F - 55.9 °F 90% 30.18 in 10.0 mi NNW 3.5 mph - N/A   Overcast
5:38 AM 59.0 °F - 55.9 °F 90% 30.18 in 1.8 mi NNW 3.5 mph - N/A   Overcast
5:50 AM 59.0 °F - 57.2 °F 94% 30.18 in 0.5 mi Calm Calm - N/A Fog Fog
5:54 AM 59.0 °F - 57.0 °F 93% 30.18 in 0.5 mi Calm Calm - N/A Fog Fog
6:02 AM 59.0 °F - 57.0 °F 93% 30.18 in 0.2 mi Calm Calm - N/A Fog Fog
6:40 AM 57.9 °F - 55.9 °F 93% 30.20 in 0.5 mi NE 3.5 mph - N/A Fog Fog
6:54 AM 59.0 °F - 57.0 °F 93% 30.19 in 0.5 mi Calm Calm - N/A Fog Fog
7:54 AM 60.8 °F - 57.2 °F 88% 30.21 in 1.0 mi Calm Calm - N/A   Overcast
8:54 AM 61.0 °F - 57.9 °F 90% 30.21 in 1.5 mi WNW 3.5 mph - N/A   Overcast
9:01 AM 61.0 °F - 57.9 °F 90% 30.21 in 8.0 mi Calm Calm - N/A   Overcast
9:46 AM 63.0 °F - 59.0 °F 87% 30.22 in 8.0 mi South 3.5 mph - N/A   Scattered Clouds
9:54 AM 64.0 °F - 59.0 °F 84% 30.22 in 10.0 mi WSW 3.5 mph - N/A   Clear
10:54 AM 70.0 °F - 59.0 °F 68% 30.22 in 10.0 mi East 3.5 mph - N/A   Clear
11:54 AM 73.9 °F - 60.1 °F 62% 30.20 in 10.0 mi SE 4.6 mph - N/A   Clear
12:54 PM 78.1 °F - 57.0 °F 48% 30.18 in 10.0 mi Calm Calm - N/A   Partly Cloudy
1:54 PM 80.1 °F 80.4 °F 57.0 °F 45% 30.17 in 10.0 mi ESE 5.8 mph - N/A   Clear
2:54 PM 81.0 °F 80.4 °F 53.1 °F 38% 30.15 in 10.0 mi ESE 3.5 mph - N/A   Clear
3:54 PM 82.0 °F 81.2 °F 53.1 °F 37% 30.14 in 10.0 mi SSW 5.8 mph - N/A   Clear
4:54 PM 80.1 °F 80.0 °F 54.0 °F 40% 30.14 in 10.0 mi SSW 5.8 mph - N/A   Clear
5:54 PM 79.0 °F - 55.9 °F 45% 30.14 in 10.0 mi Calm Calm - N/A   Clear
6:54 PM 78.1 °F - 61.0 °F 56% 30.14 in 10.0 mi Calm Calm - N/A   Clear
7:54 PM 71.1 °F - 64.0 °F 78% 30.14 in 10.0 mi Calm Calm - N/A   Clear
8:54 PM 69.1 °F - 61.0 °F 75% 30.14 in 10.0 mi Calm Calm - N/A   Clear
9:54 PM 66.0 °F - 60.1 °F 81% 30.15 in 10.0 mi North 4.6 mph - N/A   Clear
10:54 PM 64.4 °F - 59.0 °F 83% 30.16 in 10.0 mi NW 3.5 mph - N/A   Clear
11:54 PM 62.1 °F - 57.9 °F 86% 30.15 in 10.0 mi North 5.8 mph - N/A   Clear